Showing default

TUBSAT, 25757

Orbit data source: Space-Track

TUBSAT, 25757 is a payload satellite owned by DLR (DE) in SSO that was launched on Wed, 26 May 1999 UTC via a PSLV launch vehicle from the Sirharikota (SRI). Payload-class satellites include a variety of spacecraft equipped with specific instruments for various scientific and technological missions. These include communications satellites like Starlink; space stations such as the ISS; scientific satellites like the Hubble; Earth observation satellites from companies like Planet Labs, Umbra, and HawkEye 360; GPS; miniature CubeSats for education and research; and military/defense satellites.

Loading next visibility...
Identifier
25757, 1999-029B
Orbit
SSO
Country
Flag of DEDE / GER
Related business
Manufacturer
TUB
Mission
Operational Civil Imaging
Bus & Motor
TUBSAT, Unknown motor
Mass
45 kg wet, 45 kg dry
Launch date (UTC)
1999-05-26 (26 years ago)
Launch vehicle
PSLV
Launch site
Sirharikota (SRI)
Object type
Payload
Rocket body
Debris
Shape & HBR
Box, 0.1 m
Radar Cross Section
0.135 m², Medium (>0.1 m² and < 1m²)

Expand to show TLE details & history
Last TLE update: 9 hours ago

TLE from 9 hours ago
0 TUBSAT
1 25757U 99029B   25259.51365229  .00000133  00000-0  44528-4 0  9995
2 25757  98.6469 241.3712 0015390 101.4884 258.8040 14.52303817393527
Epoch: 2025-09-16T12:19Z
TLE epoch observation values (Epoch: 2025-09-16T12:19:39.557Z)
Latitude
-0.00001°
Longitude
60.75351°
Altitude
723.232 km
Speed
7.493 km/s
True Right ascension
16h 05m 29s
True Declination
0° 00' 00"
Sunlit
Object was in daylight at epoch
Visualization orbit readout
Latitude
Unknown
Longitude
Unknown
Altitude
Unknown
Speed
Unknown
Apparent Right ascension
Unknown
Apparent Declination
Unknown
Sunlit
N/A
Visualization observer readout
Local Sidereal Time
14:00:45
Azimuth
Unknown
Elevation
Unknown
Doppler factor
Unknown
Orbital elements
Apogee altitude
726.163 km
Perigee altitude
704.33 km
Semi-major axis
7,093.383 km
Eccentricity
0.00154
Inclination
98.6469°
RAAN
241.3712°
Arg. of periapsis
101.4884°
True anomaly
258.63106°
Mean anomaly
258.804°
Eccentric anomaly
258.71753°
Mean motion
3.63298 °/min
Orbital period
99.09 mins
BSTAR
0.000044528
Loading maneuver chart data...
Computing Atmospheric mass density...
Loading historical data...
Loading historical data...
Loading historical data...
Loading historical data...
Loading historical data...
Loading historical data...
Loading historical data...
Other satellites on launch #29 in the year 1999 (1999-05-26 UTC)

Documentation

Showing up to 5 results
|